RH
100 97 93 90 89 94 94 93 93 94 100 100 100 100 100 96 91 97 88 95 95 95 99 98 99 100 99
100 97 95 95 99 100 96 100 98 99 100 100 98 95 92 89 92 94 93 93 98 96 94 96 98 98 99
99 98 97 96 99 98 99 98 98 98 95 95 90 95 98 98 98 99 99 99 99 100 100 98 100 98 93
98 99 99 97 98 98 98 90 88 87 86 87 91 98 99 99 100 99 99 99 98 98 99 96 91 90 87
100 98 97 98 100 100 96 95 96 81 72 74 74 77 86 91 84 78 74 70 75 78 78 82 84 81 81
97 89 90 86 82 83 82 75 70 71 75 66 57 61 57 53 51 49 46 47 65 76 78 76 81 81 81
83 86 82 81 76 81 86 84 76 76 78 66 60 62 45 42 44 47 64 86 88 87 88 85 82 81 86
85 86 89 91 89 84 83 83 81 77 66 70 75 67 72 64 59 66 61 82 93 90 86 84 83 87 87
82 83 84 83 87 84 87 82 64 72 78 84 78 80 79 78 80 97 95 98 95 89 91 92 91 90 92
51 42 42 46 50 53 56 78 78 71 78 88 84 84 78 74 72 67 66 83 94 99 100 99 99 93 92
42 46 54 63 69 73 77 82 82 84 83 96 96 92 87 84 79 79 80 72 69 73 77 78 78 90 92
52 61 66 68 71 75 78 82 84 86 85 89 97 98 98 92 84 80 81 86 83 84 83 70 66 68 90
70 73 78 82 83 85 88 94 92 86 86 91 91 91 96 100 92 92 94 88 95 96 74 69 71 74 74
76 79 80 80 89 95 100 100 100 97 85 82 76 80 98 100 100 100 99 99 88 93 91 93 96 88 84
81 83 85 88 92 92 92 94 97 94 95 93 65 67 70 75 97 90 85 84 90 98 100 97 96 95 94
65 68 82 94 96 96 97 96 91 92 93 92 96 92 86 71 71 75 88 92 96 98 100 100 100 94 90
62 64 68 70 81 92 93 95 92 91 91 96 99 100 92 91 77 87 99 97 97 94 95 96 97 87 90
Wind_Speed
3 5 8 9 8 7 6 7 7 5 15 8 10 9 8 10 13 16 19 17 19 22 22 15 15 14 16
2 5 5 7 6 4 4 4 4 5 5 3 3 4 8 11 12 13 17 15 17 18 19 18 15 14 14
1 4 3 6 4 4 4 4 5 8 12 13 13 14 13 14 14 14 15 16 16 13 12 14 14 15 16
2 2 3 4 6 7 7 7 7 6 7 8 9 11 11 14 15 14 14 14 16 16 14 15 15 14 15
2 2 3 4 5 5 4 5 4 6 7 6 6 7 9 10 11 13 15 16 15 15 16 17 17 17 16
2 2 2 3 4 5 4 4 2 5 9 9 11 11 13 15 17 19 20 19 17 16 15 16 16 16 15
3 2 2 2 3 3 4 3 3 8 9 8 8 9 8 12 12 13 12 12 12 13 12 12 13 14 13
5 3 2 3 2 4 4 6 7 7 6 4 6 9 10 10 10 8 11 12 11 11 12 12 13 13 13
2 3 4 5 5 7 5 5 5 2 4 3 5 11 8 3 3 3 3 1 8 9 9 9 11 12 13
4 4 5 4 5 5 4 2 2 3 1 4 5 7 6 4 4 10 9 6 7 8 9 9 9 11 13
4 2 2 1 1 1 2 2 3 4 5 3 5 7 4 8 11 11 7 6 9 12 16 18 16 15 16
3 2 2 2 4 5 6 7 8 11 12 13 7 8 8 12 10 7 12 15 14 12 12 16 19 21 20
3 4 4 6 7 7 8 9 11 12 10 9 12 13 11 11 14 15 16 9 17 12 7 14 18 18 21
5 6 7 7 6 5 7 9 10 7 4 8 8 12 13 15 17 22 17 12 14 16 19 20 18 17 18
8 7 7 6 7 7 10 10 11 13 11 11 12 14 18 22 20 23 24 22 21 20 15 19 19 18 19
10 11 11 11 10 10 10 10 12 13 14 13 12 13 11 16 18 24 17 19 16 16 15 17 23 21 22
12 13 14 15 13 12 13 13 15 16 17 15 13 9 8 9 12 18 23 20 19 19 18 21 25 29 22
Wind_Direction
251 320 332 327 327 328 332 334 346 350 46 128 132 158 193 243 271 263 272 255 266 270 264 261 265 265 268
299 330 327 347 353 357 359 326 311 294 309 333 307 281 264 257 252 263 265 262 256 260 256 263 269 269 268
5 4 354 6 9 20 354 331 302 284 275 277 282 273 276 271 270 265 257 259 252 242 240 255 264 265 265
70 36 29 5 40 34 21 6 347 326 300 288 278 275 270 261 255 252 247 247 250 256 262 260 259 257 258
77 65 36 20 23 13 18 357 350 349 341 331 314 287 273 267 265 263 264 264 264 262 260 256 255 256 256
62 69 45 20 22 26 22 17 358 357 342 314 305 296 289 279 276 273 271 269 265 262 259 253 250 251 252
89 77 63 22 9 4 13 6 327 322 327 304 311 301 303 290 279 275 272 265 261 256 253 251 249 250 254
84 74 44 348 318 328 329 317 310 314 327 290 322 314 318 308 291 292 276 256 255 250 247 247 246 249 250
305 286 270 275 296 290 300 314 323 319 325 293 325 324 318 331 357 355 347 267 239 244 242 239 247 249 252
309 296 292 280 276 283 280 264 277 289 271 327 322 354 324 296 316 305 318 264 251 257 251 252 253 255 265
335 355 11 32 26 329 312 277 255 258 297 325 286 312 289 300 303 305 304 319 284 274 261 257 260 264 271
337 339 324 306 298 295 290 284 277 273 273 282 271 278 286 292 286 297 299 294 293 285 279 274 268 265 260
300 296 298 305 301 297 293 290 289 285 284 275 279 285 270 255 276 289 307 298 291 284 294 294 290 281 274
286 289 295 302 299 299 296 301 304 296 252 293 287 284 274 267 270 277 277 272 284 287 291 290 285 279 269
277 283 281 283 280 283 289 291 285 291 292 296 304 295 281 274 269 267 276 274 275 283 282 283 279 273 271
277 280 279 281 286 287 287 284 289 287 289 296 302 312 302 292 265 269 269 271 278 281 277 273 279 278 275
277 280 283 285 286 279 279 278 282 283 287 291 291 281 278 271 281 258 261 273 281 280 274 268 268 277 276